Tracking 34717 objects as of 14-Jul-2026
HD Live streaming from Space Station
objects crossing your sky now

STARLINK-31526

Track STARLINK-31526 now!
10-day predictions
STARLINK-31526 is classified as:


NORAD ID: 59016
Int'l Code: 2024-036U
Perigee: 477.2 km
Apogee: 478.6 km
Inclination: 53.2 °
Period: 94.0 minutes
Semi major axis: 6848 km
RCS: Unknown
Launch date: February 23, 2024
Source: United States (US)
Launch site: AIR FORCE WESTERN TEST RANGE (AFWTR)
Your satellite tracking list
Your tracking list is empty




NASA's NSSDC Master Catalog

Two Line Element Set (TLE):
1 59016U 24036U   26194.44401391  .00000580  00000-0  30446-4 0  9998
2 59016  53.1580 187.9115 0001033  73.0979 287.0135 15.31702927134943
Source of the keplerian elements: AFSPC